Regional Weather Roundup
Issued by NWS Sterling, VA

Home | Current Version | Previous Version | Graphics & Text | Print | Product List | Glossary On
Versions: 1 2 3 4 5 6 7 8 9 10 11 12 13 14 15 16 17 18 19 20 21 22 23 24 25 26 27 28 29 30 31 32 33 34 35 36 37 38 39 40 41 42 43 44 45 46 47 48 49 50
000
ASUS41 KLWX 020110
RWRLWX

REGIONAL WEATHER ROUNDUP
NATIONAL WEATHER SERVICE BALTIMORE MD/WASHINGTON DC
900 PM EDT WED JUL 01 2015

Note: "FAIR" indicates few or no clouds below 12,000 feet
with no significant weather and/or obstructions to visibility.
 TC=TEMPERATURE CELSIUS

 * =Non NWS site. Station does not report precipitation (e.g. rain,
    snow, etc.), thunder, or fog.

DCZ001-MDZ009-015-VAZ040>042-051-053>054-020200-
WASHINGTON METRO

CITY           SKY/WX    TMP DP  RH WIND       PRES   REMARKS
WASHINGTON NAT LGT RAIN  74  69  85 S9G26     29.88R
DULLES         PTCLDY    78  60  53 NW7       29.88R
ANDREWS AFB    RAIN      70  67  91 NW6       29.87F
FT BELVOIR     PTCLDY    73  68  84 SE3       29.87R
QUANTICO       CLOUDY    80  68  66 NW8       29.87R
COLLEGE PARK*  MOCLDY    77  66  69 S5        29.88R
LEESBURG*      PTCLDY    75  64  69 CALM      29.90R
MANASSAS*      PTCLDY    79  70  73 CALM      29.87R
GAITHERSBURG*  CLEAR     73  61  64 CALM      29.93R

$$

MDZ006>007-011-014-020200-
BALTIMORE METRO

CITY           SKY/WX    TMP DP  RH WIND       PRES   REMARKS
BWI AIRPORT    MOCLDY    78  63  59 N3        29.87R
MD SCIENCE CTR   N/A     81  59  47 MISG      29.86R
MARTIN STATE   MOCLDY    77  66  69 CALM      29.88R
ANNAPOLIS      CLOUDY    78  67  68 W3        29.86R
FORT MEADE*    PTCLDY    72  68  88 CALM      29.90R

$$

MDZ012-015-019>023-020200-
MARYLAND EASTERN SHORE

CITY           SKY/WX    TMP DP  RH WIND       PRES   REMARKS
OCEAN CITY     CLEAR     78  68  71 SW5       29.88R
SALISBURY      PTCLDY    77  71  82 S5        29.87R
BAY BRIDGE AP*   N/A     77  64  65 CALM      29.87R
CAMBRIDGE*     PTCLDY    77  68  73 CALM      29.87R

$$

MDZ017>025-020200-
SOUTHERN MARYLAND

CITY           SKY/WX    TMP DP  RH WIND       PRES   REMARKS
PATUXENT RIVER PTCLDY    78  68  71 SW6       29.86R
ST INIGOES     CLEAR     80  70  71 S7        29.87R
LEONARDTOWN*   CLEAR     77  66  69 CALM      29.89R

$$

MDZ003>005-020200-
NORTH CENTRAL MARYLAND

CITY           SKY/WX    TMP DP  RH WIND       PRES   REMARKS
FREDERICK*     CLEAR     72  64  78 CALM      29.91R
HAGERSTOWN APT CLEAR     75  57  53 CALM      29.90R
WESTMINSTER*   CLEAR     75  61  60 CALM      29.91R

$$

MDZ501>502-020200-
WESTERN MARYLAND

CITY           SKY/WX    TMP DP  RH WIND       PRES   REMARKS
OAKLAND*       CLEAR     61 N/A N/A W5        30.01R
CUMBERLAND*    CLEAR     75  55  50 NW3       29.95R

$$

VAZ025>031-020200-
SHENANDOAH VALLEY

CITY           SKY/WX    TMP DP  RH WIND       PRES   REMARKS
WINCHESTER*    CLEAR     73  61  64 CALM      29.90R
FRONT ROYAL*   MOCLDY    73  64  73 N3        29.89R
LURAY*         MOCLDY    77  64  65 CALM      29.90R
NEW MARKET*    MOCLDY    69  65  86 CALM      29.89R
STAUNTON*      PTCLDY    75  63  65 CALM      29.93S
WAYNESBORO*    FAIR      73  62  69 S3        29.93S

$$

WVZ021-048>050-054>055-020200-
EASTERN WEST VIRGINIA PANHANDLE

CITY           SKY/WX    TMP DP  RH WIND       PRES   REMARKS
MARTINSBURG    CLEAR     71  61  70 CALM      29.90R
PETERSBURG*    CLEAR     71  57  62 CALM      29.93R

$$

VAZ036>039-050-020200-
CENTRAL FOOTHILLS

CITY           SKY/WX    TMP DP  RH WIND       PRES   REMARKS
CHARLOTTESVILL PTCLDY    78  65  63 SW6       29.88R
CULPEPER*        N/A     73  69  88 CALM      29.88R
ORANGE*        CLEAR     73  68  83 CALM      29.90R
GORDONSVILLE*  FAIR      73  70  88 CALM      29.88R
WARRENTON*     FAIR      73  72  95 CALM      29.87R

$$

VAZ055>057-020200-
NORTH AND CENTRAL PIEDMONT

CITY           SKY/WX    TMP DP  RH WIND       PRES   REMARKS
FREDERICKSBRG* CLEAR     79  71  74 S5        29.86S
STAFFORD*      MOCLDY    76  68  75 CALM      29.90S

$$

NCZ024-NYZ072-PAZ021-071-VAZ022-071-020200-
OTHER REGIONAL OBSERVATIONS

CITY           SKY/WX    TMP DP  RH WIND       PRES   REMARKS
NEW YORK CITY  MOCLDY    79  57  46 VRB5      29.85R
PHILADELPHIA   MOCLDY    81  58  45 W10       29.86R
PITTSBURGH     PTCLDY    70  60  70 CALM      29.92R
ROANOKE        CLOUDY    76  63  64 W7        29.94S
RICHMOND       PTCLDY    77  69  76 S6        29.88F
RALEIGH        CLOUDY    81  70  69 SW8       29.94R

$$

ANZ530>537-020200-
MARINE OBSERVATIONS

STATION/POSITION TIME  TEMP    WIND        PRES
                       AIR SEA DIR/SP/G
                 (UTC) (F)     (DEG/KT/KT) (MB)
THOMAS PT LIGHT  0100   77     210/  7     1011.8
BALT KEY BRIDGE  0000   81     230/  6/  7 1010.3R
COVE POINT       0000   82     240/  7/ 10 1011.5R
LEWISETTA        0000   82 83  230/  7/  8 1011.0R
SOLOMONS ISLAND  0000      79                N/A
PINEY POINT      0000          220/  6/  7   N/A

$$




USA.gov is the U.S. government's official web portal to all federal, state and local government web resources and services.